CW0060 Weather Reports


Display with metric or nautical units.
time (UTC)temp
F
wind
direction
speed
MPH
gust
MPH
rain 1hr
in
rain 24hr
in
rain mn
in
humidity
%
barometer
mb
20260505193705 55 117 0.0 3.0 0.00 0.96 0.96 92 1006.3
20260505193205 55 178 1.0 3.0 0.00 0.96 0.96 92 1006.2
20260505192705 55 231 1.0 3.0 0.00 0.96 0.96 92 1006.2
20260505192205 55 314 1.0 3.0 0.00 0.96 0.96 92 1006.2
20260505191716 55 283 1.0 4.0 0.01 0.96 0.96 92 1006.2
20260505191209 55 286 2.0 4.0 0.01 0.96 0.96 92 1006.2
20260505190205 55 264 2.0 3.0 0.01 0.96 0.96 92 1006.1
20260505185205 56 302 1.0 3.0 0.01 0.96 0.96 92 1006.1
20260505184705 56 324 1.0 5.0 0.02 0.96 0.96 92 1006.0
20260505184214 56 250 2.0 5.0 0.02 0.96 0.96 92 1006.0
20260505183705 56 222 2.0 4.0 0.02 0.96 0.96 92 1006.0
20260505182706 56 286 2.0 4.0 0.03 0.96 0.96 92 1005.8
20260505182205 56 331 2.0 4.0 0.03 0.95 0.95 92 1005.8
20260505181208 56 277 2.0 5.0 0.05 0.95 0.95 92 1005.9
20260505180705 56 8 2.0 5.0 0.06 0.95 0.95 92 1005.8
20260505175705 56 245 3.0 6.0 0.07 0.95 0.95 92 1006.0
20260505175205 56 252 3.0 6.0 0.08 0.94 0.94 92 1005.9
20260505174705 56 269 3.0 6.0 0.09 0.94 0.94 92 1005.9
20260505174206 56 293 3.0 4.0 0.10 0.94 0.94 91 1005.9
20260505173706 56 253 2.0 4.0 0.11 0.94 0.94 91 1005.9
20260505173205 56 252 2.0 4.0 0.11 0.93 0.93 91 1005.9
20260505172706 56 319 2.0 4.0 0.12 0.92 0.92 91 1006.0
20260505171706 56 269 1.0 4.0 0.13 0.91 0.91 91 1005.9
20260505171208 56 300 2.0 4.0 0.15 0.90 0.90 91 1005.9
20260505170705 56 290 2.0 4.0 0.17 0.89 0.89 91 1005.9
20260505170206 56 272 2.0 4.0 0.18 0.88 0.88 91 1006.0
20260505165706 56 300 2.0 4.0 0.19 0.87 0.87 90 1005.9
20260505165208 56 286 2.0 4.0 0.19 0.86 0.86 90 1005.9
20260505164706 56 252 2.0 4.0 0.20 0.85 0.84 90 1006.1
20260505163205 56 253 2.0 5.0 0.43 0.82 0.81 90 1006.4
20260505162705 56 269 2.0 5.0 0.49 0.80 0.80 90 1006.4
20260505162205 56 238 2.0 5.0 0.54 0.79 0.79 90 1006.5
20260505161708 56 283 2.0 8.0 0.64 0.77 0.77 89 1006.6
20260505161205 56 257 4.0 8.0 0.73 0.75 0.75 89 1006.7
20260505153205 58 189 13.0 24.0 0.38 0.38 0.38 85 1006.8
20260505152705 58 182 12.0 21.0 0.30 0.30 0.30 82 1006.5
20260505152222 60 162 12.0 22.0 0.20 0.20 0.20 80 1006.6
20260505151208 63 212 9.0 22.0 0.01 0.01 0.01 73 1006.3
20260505150708 64 118 5.0 10.0 0.00 0.00 0.00 71 1006.1
20260505140204 67 257 3.0 7.0 0.00 0.00 0.00 59 1005.2
20260505130205 69 327 2.0 6.0 0.00 0.00 0.00 53 1005.7
20260505124706 71 49 4.0 8.0 0.00 0.00 0.00 50 1005.9
20260505124205 71 23 3.0 8.0 0.00 0.00 0.00 54 1005.8
20260505123206 69 89 3.0 7.0 0.00 0.00 0.00 50 1006.0
20260505122206 71 252 4.0 8.0 0.00 0.00 0.00 46 1006.1
20260505121705 73 224 4.0 7.0 0.00 0.00 0.00 47 1006.1
20260505120205 70 130 2.0 6.0 0.00 0.00 0.00 51 1006.2
20260505115705 71 199 3.0 6.0 0.00 0.00 0.00 53 1006.3
20260505115206 70 41 3.0 7.0 0.00 0.00 0.00 52 1006.3
20260505114206 69 46 3.0 7.0 0.00 0.00 0.00 53 1006.4
20260505113705 70 135 2.0 6.0 0.00 0.00 0.00 54 1006.5
20260505113205 70 140 2.0 6.0 0.00 0.00 0.00 52 1006.6
20260505112204 71 89 3.0 9.0 0.00 0.00 0.00 52 1006.6
20260505111705 72 117 4.0 9.0 0.00 0.00 0.00 50 1006.7
20260505111205 72 238 3.0 8.0 0.00 0.00 0.00 51 1006.7
20260505110705 73 101 3.0 8.0 0.00 0.00 0.00 53 1006.7
20260505110206 71 39 2.0 6.0 0.00 0.00 0.00 59 1006.8
20260505102206 67 142 3.0 6.0 0.00 0.00 0.00 65 1007.3
20260505101705 66 283 2.0 4.0 0.00 0.00 0.00 68 1007.2
20260505101205 66 229 2.0 4.0 0.00 0.00 0.00 68 1007.3
20260505100206 66 1 1.0 5.0 0.00 0.00 0.00 68 1007.4
20260505095705 65 233 2.0 5.0 0.00 0.00 0.00 68 1007.5
20260505095205 65 58 2.0 5.0 0.00 0.00 0.00 69 1007.5
20260505094205 64 194 2.0 5.0 0.00 0.00 0.00 70 1007.4
20260505093706 63 208 1.0 5.0 0.00 0.00 0.00 74 1007.5
20260505093205 63 328 2.0 5.0 0.00 0.00 0.00 73 1007.5
20260505092705 62 257 2.0 4.0 0.00 0.00 0.00 73 1007.7
20260505092204 62 240 2.0 4.0 0.00 0.00 0.00 75 1007.6
20260505091705 62 240 2.0 5.0 0.00 0.00 0.00 73 1007.7
20260505091208 63 269 2.0 5.0 0.00 0.00 0.00 73 1007.8
20260505090705 63 314 2.0 5.0 0.00 0.00 0.00 74 1007.9
20260505090206 63 308 2.0 5.0 0.00 0.00 0.00 74 1007.8
20260505085705 63 168 2.0 4.0 0.00 0.00 0.00 76 1007.9
20260505085205 62 205 2.0 4.0 0.00 0.00 0.00 76 1007.9
20260505084705 62 205 2.0 4.0 0.00 0.00 0.00 77 1007.8
20260505083705 61 215 1.0 3.0 0.00 0.00 0.00 78 1007.8
20260505083205 60 331 1.0 3.0 0.00 0.00 0.00 79 1007.9
20260505082706 60 222 1.0 3.0 0.00 0.00 0.00 79 1007.9
20260505082206 60 305 1.0 3.0 0.00 0.00 0.00 80 1008.0
20260505081706 60 46 1.0 3.0 0.00 0.00 0.00 79 1008.1
20260505081205 60 314 1.0 3.0 0.00 0.00 0.00 80 1008.1
20260505080706 60 0 1.0 3.0 0.00 0.00 0.00 80 1008.2
20260505080205 59 82 1.0 4.0 0.00 0.00 0.00 81 1008.2
20260505075705 59 178 1.0 4.0 0.00 0.00 0.00 82 1008.2
20260505075206 59 233 1.0 4.0 0.00 0.00 0.00 82 1008.2
20260505074705 58 252 1.0 3.0 0.00 0.00 0.00 83 1008.2
20260505074206 58 331 2.0 3.0 0.00 0.00 0.00 83 1008.3
20260505073705 58 269 1.0 3.0 0.00 0.00 0.00 83 1008.3
20260505073205 57 255 1.0 2.0 0.00 0.00 0.00 84 1008.3
20260505072705 57 46 1.0 2.0 0.00 0.00 0.00 84 1008.4
20260505072205 57 269 1.0 2.0 0.00 0.00 0.00 85 1008.5
20260505071705 57 46 1.0 2.0 0.00 0.00 0.00 85 1008.5
20260505071205 56 269 0.0 2.0 0.00 0.00 0.00 86 1008.5
20260505070706 56 269 0.0 1.0 0.00 0.00 0.00 86 1008.6
20260505070206 56 46 0.0 1.0 0.00 0.00 0.00 87 1008.6
20260505065706 56 28 0.0 1.0 0.00 0.00 0.00 87 1008.6
20260505065206 56 89 0.0 1.0 0.00 0.00 0.00 87 1008.9
20260505064705 56 269 0.0 2.0 0.00 0.00 0.00 87 1008.7
20260505064206 56 89 0.0 2.0 0.00 0.00 0.00 87 1008.7
20260505063206 56 250 1.0 2.0 0.00 0.00 0.00 87 1008.7
20260505062205 55 269 1.0 2.0 0.00 0.00 0.00 88 1008.6
20260505061706 55 222 1.0 2.0 0.00 0.00 0.00 88 1008.7
20260505061205 55 269 1.0 2.0 0.00 0.00 0.00 88 1008.7
20260505060209 55 222 0.0 1.0 0.00 0.00 0.00 88 1008.6
20260505055705 55 178 0.0 1.0 0.00 0.00 0.00 87 1008.6
20260505055206 55 269 0.0 2.0 0.00 0.00 0.00 87 1008.7
20260505054705 54 314 0.0 2.0 0.00 0.00 0.00 87 1008.9
20260505054206 54 269 1.0 2.0 0.00 0.00 0.00 87 1008.7
20260505053205 54 295 0.0 1.0 0.00 0.00 0.00 87 1008.7
20260505052706 54 314 0.0 2.0 0.00 0.00 0.00 87 1008.7
20260505052230 54 269 1.0 2.0 0.00 0.00 0.00 87 1008.7
20260505050705 54 46 0.0 2.0 0.00 0.00 0.00 86 1008.6
20260505050230 54 89 0.0 3.0 0.00 0.00 0.00 86 1008.6
20260505041706 54 178 0.0 2.0 0.00 0.00 0.00 85 1008.6
20260505041205 54 46 1.0 2.0 0.00 0.00 0.00 85 1008.6
20260505040705 54 117 1.0 2.0 0.00 0.00 0.00 85 1008.5
20260505040205 54 13 1.0 3.0 0.00 0.00 0.00 85 1008.6
20260505035706 54 344 1.0 3.0 0.00 0.00 0.00 85 1008.6
20260505034706 54 151 1.0 2.0 0.00 0.00 0.00 84 1008.7
20260505034206 54 46 1.0 2.0 0.00 0.00 0.00 84 1008.6
20260505033706 55 51 1.0 2.0 0.00 0.00 0.00 84 1008.7
20260505032706 55 76 1.0 2.0 0.00 0.00 0.00 84 1008.9
20260505032206 55 104 1.0 2.0 0.00 0.00 0.00 84 1008.7
20260505031705 55 89 1.0 2.0 0.00 0.00 0.00 84 1009.1
20260505031206 55 39 0.0 2.0 0.00 0.00 0.00 84 1009.2
20260505030706 55 46 0.0 2.0 0.00 0.00 0.00 83 1009.3
20260505030205 55 46 1.0 2.0 0.00 0.00 0.00 83 1009.3
20260505025705 55 46 2.0 2.0 0.00 0.00 0.00 83 1009.3
20260505025206 55 46 1.0 2.0 0.00 0.00 0.00 83 1009.3
20260505024705 55 28 1.0 3.0 0.00 0.00 0.00 83 1009.4
20260505024205 55 46 1.0 3.0 0.00 0.00 0.00 83 1009.5
20260505023205 55 147 1.0 3.0 0.00 0.00 0.00 82 1009.5
20260505022705 55 164 2.0 3.0 0.00 0.00 0.00 82 1009.5
20260505022206 55 56 1.0 3.0 0.00 0.00 0.00 82 1009.4
20260505021705 56 20 1.0 1.0 0.00 0.00 0.00 82 1009.5
20260505021205 56 314 0.0 1.0 0.00 0.00 0.00 81 1009.6
20260505020706 56 222 0.0 1.0 0.00 0.00 0.00 81 1009.7
20260505020205 56 269 0.0 1.0 0.00 0.00 0.00 81 1009.8
20260505015706 56 222 0.0 1.0 0.00 0.00 0.00 81 1009.8
20260505014706 56 46 0.0 1.0 0.00 0.00 0.00 81 1009.7
20260505013206 56 89 0.0 1.0 0.00 0.00 0.00 81 1009.8
20260505012705 56 46 0.0 2.0 0.00 0.00 0.00 81 1009.9
20260505012205 56 46 1.0 2.0 0.00 0.00 0.00 81 1009.9
20260505011714 56 46 1.0 2.0 0.00 0.00 0.00 81 1009.9
20260505011205 56 11 0.0 2.0 0.00 0.00 0.00 80 1009.9
20260505010205 56 46 0.0 2.0 0.00 0.00 0.00 80 1010.0
20260505005705 57 46 0.0 2.0 0.00 0.00 0.00 81 1010.1
20260505005205 57 46 1.0 2.0 0.00 0.00 0.00 81 1010.1
20260505004705 57 46 1.0 2.0 0.00 0.00 0.00 80 1010.3
20260505004205 57 1 1.0 2.0 0.00 0.00 0.00 80 1010.4
20260505003705 57 178 1.0 2.0 0.00 0.00 0.00 80 1010.4
20260505003205 57 68 1.0 2.0 0.00 0.00 0.00 80 1010.5
20260505002205 57 63 0.0 1.0 0.00 0.00 0.00 79 1010.6
20260505001705 57 117 0.0 2.0 0.00 0.00 0.00 79 1010.7
20260505001205 57 46 0.0 2.0 0.00 0.00 0.00 79 1010.6
20260505000705 57 46 1.0 2.0 0.00 0.00 0.00 79 1010.7
20260505000205 57 89 1.0 2.0 0.00 0.00 0.00 79 1010.7
20260504235706 57 18 0.0 2.0 0.00 0.00 0.00 79 1010.8
20260504234706 58 46 1.0 2.0 0.00 0.00 0.00 78 1010.9
20260504234206 58 135 1.0 2.0 0.00 0.00 0.00 78 1010.9
20260504233706 58 160 1.0 2.0 0.00 0.00 0.00 78 1011.0
20260504232705 58 39 0.0 3.0 0.00 0.00 0.00 78 1010.9
20260504232206 58 1 1.0 3.0 0.00 0.00 0.00 77 1011.1
20260504231705 58 89 2.0 3.0 0.00 0.00 0.00 77 1011.0
20260504231205 58 46 2.0 3.0 0.00 0.00 0.00 77 1011.1
20260504230705 58 106 1.0 3.0 0.00 0.00 0.00 77 1011.1
20260504230206 58 127 1.0 2.0 0.00 0.00 0.00 77 1011.0
20260504224206 58 340 1.0 4.0 0.00 0.00 0.00 76 1011.1
20260504223706 58 279 1.0 4.0 0.00 0.00 0.00 76 1011.1
20260504222705 59 340 2.0 4.0 0.00 0.00 0.00 76 1011.2
20260504220704 59 309 2.0 4.0 0.00 0.00 0.00 75 1011.5
20260504220206 59 279 2.0 4.0 0.00 0.00 0.00 74 1011.5
20260504215705 59 35 1.0 3.0 0.00 0.00 0.00 74 1011.5
20260504214706 60 314 1.0 2.0 0.00 0.00 0.00 73 1011.6
20260504213705 60 135 1.0 2.0 0.00 0.00 0.00 73 1011.6
20260504213205 60 81 0.0 1.0 0.00 0.00 0.00 72 1011.6
20260504212205 60 89 0.0 3.0 0.00 0.00 0.00 71 1011.7
20260504211205 60 56 2.0 3.0 0.00 0.00 0.00 71 1011.7
20260504210705 60 32 1.0 3.0 0.00 0.00 0.00 71 1011.7
20260504205705 61 89 1.0 3.0 0.00 0.00 0.00 71 1011.7
20260504205206 61 331 2.0 3.0 0.00 0.00 0.00 71 1011.8
20260504204706 61 344 1.0 2.0 0.00 0.00 0.00 71 1011.7
20260504204205 61 56 0.0 1.0 0.00 0.00 0.00 70 1011.8
20260504203706 62 314 0.0 2.0 0.00 0.00 0.00 70 1011.7
20260504203205 62 269 1.0 2.0 0.00 0.00 0.00 69 1011.7
20260504202206 62 222 1.0 4.0 0.00 0.00 0.00 68 1011.7
20260504201705 62 104 2.0 5.0 0.00 0.00 0.00 67 1011.7
20260504201205 62 35 3.0 5.0 0.00 0.00 0.00 68 1011.6
20260504200705 62 14 3.0 4.0 0.00 0.00 0.00 67 1011.6
20260504200205 62 25 2.0 3.0 0.00 0.00 0.00 67 1011.6
20260504195206 63 23 1.0 3.0 0.00 0.00 0.00 66 1011.7
20260504194207 63 212 2.0 3.0 0.00 0.00 0.00 66 1011.7